Starlink 5730

operational
NORAD ID: 55611 Int'l Des: 2023-020 Owner: SPXS Country: US Constellation: starlink
LEOCIRCULAR

About Starlink 5730

Description loading...

Live Position

Loading 3D Globe...

Upcoming Passes

Altitude History

Altitude vs Time

uPlot chart will show altitude changes over time

Two-Line Element Set

1 55611U 23020AU 26061.60721818 -.00000559 00000-0 -26334-4 0 9996
2 55611 43.0034 30.1740 0000532 239.4186 120.6604 15.02526833168001
Epoch: Mar 2, 2026 • Age: 39 hours

Current Status

Altitude 558.8 km
Velocity 7.58 km/s
Sub-Earth Point -0.31°S, 173.93°E
Launch Date Feb 12, 2023
Age 3 years
Type internet

Technical Details

Classification Payload
Mass 305.00 kg
Dry Mass 290.00 kg
Total Mass 305.00 kg
Length 0.20 m
Diameter 2.80 m
Span 9.00 m
Shape Box + pan
Manufacturer SPXS
Bus Type Starlink
Phase Status In Orbit
Owner/State SPXS/US

Large Constellations

Loading constellations...